Boise, ID

11:47 AM MDT on May 22, 2017 (GMT -0600)
Boise Air Term

Weather History for KBOI - February, 2014

Change the Weather History Date:

Sunday, February 23, 2014

  Actual Average Record
Temperature  
Mean Temperature 44 °F 39 °F  
Max Temperature 54 °F 48 °F 64 °F (1995)
Min Temperature 33 °F 30 °F 7 °F (1894)
Degree Days  
Heating Degree Days 21 26  
Month to date heating degree days 629 671  
Since 1 July heating degree days 4250 4032  
Cooling Degree Days 0 0  
Month to date cooling degree days 0 0  
Year to date cooling degree days 0 0  
Moisture  
Dew Point 31 °F    
Average Humidity 64    
Maximum Humidity 89    
Minimum Humidity 38    
Precipitation  
Precipitation T in 0.04 in 0.79 in (2000)
Month to date precipitation 2.08 0.80  
Year to date precipitation 2.89 2.04  
Snow  
Snow 0.00 in 0.10 in 3.40 in (1917)
Month to date snowfall 4.2 2.5  
Since 1 July snowfall 14.4 17.3  
Snow Depth 0.00 in    
Sea Level Pressure  
Sea Level Pressure 30.00 in    
Wind  
Wind Speed 5 mph (ESE)    
Max Wind Speed 13 mph    
Max Gust Speed 15 mph    
Visibility 10 miles    
Events      
T = Trace of Precipitation, MM = Missing Value Source: NWS Daily Summary

Daily Weather History Graph

Daily Weather History Graph

Search for Another Location

Airport or City:

Trip Planner

Search our weather history database for the weather conditions in past years. The results will help you decide how hot, cold, wet, or windy it might be!

Date:

Astronomy

Feb. 23, 2014 Rise Set
Actual Time 7:30 AM MST 6:26 PM MST
Civil Twilight 7:02 AM MST 6:55 PM MST
Nautical Twilight 6:28 AM MST 7:28 PM MST
Astronomical Twilight 5:55 AM MST 8:01 PM MST
Moon 2:39 AM MST (2/23) 12:27 PM MST (2/23)
Length of Visible Light 11h 53m
Length of Day
10h 55m
Last Quarter, 38% of the Moon is Illuminated
Feb 23
Last Quarter
Mar 1
New
Mar 8
First Quarter
Mar 16
Full
Mar 23
Last Quarter

Hourly Weather History & Observations

Time (MST) Temp. Windchill Dew Point Humidity Pressure Visibility Wind Dir Wind Speed Gust Speed Precip Events Conditions
12:53 AM 37.0 °F 30.4 °F 30.9 °F 79% 30.02 in 10.0 mi SSE 9.2 mph - N/A   Overcast
1:53 AM 37.0 °F 31.6 °F 30.9 °F 79% 30.02 in 10.0 mi SE 6.9 mph - N/A   Overcast
2:53 AM 37.0 °F 32.4 °F 30.9 °F 79% 30.02 in 10.0 mi ESE 5.8 mph - N/A   Overcast
3:53 AM 36.0 °F 30.3 °F 30.9 °F 82% 30.02 in 10.0 mi SE 6.9 mph - N/A   Overcast
4:53 AM 36.0 °F 31.1 °F 30.9 °F 82% 30.03 in 10.0 mi ESE 5.8 mph - N/A   Overcast
5:53 AM 36.0 °F 31.1 °F 30.9 °F 82% 30.03 in 10.0 mi SE 5.8 mph - N/A   Overcast
6:53 AM 34.0 °F 28.8 °F 30.0 °F 85% 30.04 in 10.0 mi ESE 5.8 mph - N/A   Partly Cloudy
7:53 AM 34.0 °F 28.8 °F 30.0 °F 85% 30.05 in 10.0 mi SE 5.8 mph - N/A   Partly Cloudy
8:53 AM 37.9 °F 32.7 °F 32.0 °F 79% 30.06 in 10.0 mi ESE 6.9 mph - N/A   Mostly Cloudy
9:53 AM 45.0 °F 41.2 °F 33.1 °F 63% 30.05 in 10.0 mi SE 6.9 mph - N/A   Clear
10:53 AM 46.9 °F - 30.0 °F 52% 30.05 in 10.0 mi ESE 4.6 mph - N/A   Clear
11:53 AM 48.9 °F - 28.9 °F 46% 30.05 in 10.0 mi Calm Calm - N/A   Clear
12:53 PM 52.0 °F - 30.9 °F 45% 30.02 in 10.0 mi ENE 5.8 mph - N/A   Clear
1:53 PM 52.0 °F - 30.0 °F 43% 30.00 in 10.0 mi East 3.5 mph - N/A   Clear
2:53 PM 54.0 °F - 28.9 °F 38% 29.97 in 10.0 mi Calm Calm - N/A   Clear
3:53 PM 54.0 °F - 28.9 °F 38% 29.96 in 10.0 mi Calm Calm - N/A   Clear
4:53 PM 54.0 °F - 28.0 °F 37% 29.95 in 10.0 mi Calm Calm - N/A   Clear
5:53 PM 52.0 °F - 32.0 °F 47% 29.95 in 10.0 mi ESE 3.5 mph - N/A   Clear
6:53 PM 50.0 °F - 30.9 °F 48% 29.96 in 10.0 mi ESE 5.8 mph - N/A   Partly Cloudy
7:53 PM 46.9 °F - 33.1 °F 59% 29.96 in 10.0 mi ESE 5.8 mph - N/A   Mostly Cloudy
8:53 PM 46.9 °F - 34.0 °F 61% 29.95 in 10.0 mi SE 9.2 mph - N/A   Overcast
9:53 PM 48.0 °F - 33.1 °F 56% 29.95 in 10.0 mi SE 10.4 mph - N/A   Overcast
10:53 PM 48.0 °F - 33.1 °F 56% 29.95 in 10.0 mi East 3.5 mph - N/A   Overcast
11:53 PM 46.9 °F - 33.1 °F 59% 29.96 in 10.0 mi SE 8.1 mph - N/A   Overcast